COSMOS 2251 DEB, 34425

Orbit data source: Space-Track

COSMOS 2251 DEB, 34425 is space debris in LEO originally from a launch on Wed, 16 Jun 1993 UTC launched from the Plesetsk Missile And Space Complex (PKMTR). The debris from Iridium 33, an American commercial communications satellite, has been tracked extensively since its accidental collision with the defunct Russian satellite Cosmos 2251 in 2009. This event, occurring at high speed in low Earth orbit (LEO), generated thousands of pieces of space debris, significantly increasing the risk of further collisions. The Iridium 33 debris cloud has impacted space traffic management and orbital debris mitigation strategies, making it a subject of ongoing study in space situational awareness.

Loading next visibility...
Identifier
34425, 1993-036RS
Orbit
LEO
Country
Flag of CISCIS
Related business
Manufacturer
Unknown
Mission
Spacecraft
Bus & Motor
Unknown
Mass
Unknown
Launch date (UTC)
1993-06-16 (33 years ago)
Launch vehicle
Unknown
Launch site
Plesetsk Missile And Space Complex (PKMTR)
Object type
Payload
Rocket body
Debris
Shape & HBR
Unknown shape, 0.1 m
Radar Cross Section
Medium (>0.1 m² and <1 m²)

Expand to show TLE details & history
Last TLE update: 15 hours ago

TLE from 15 hours ago
0 COSMOS 2251 DEB
1 34425U 93036RS  26236.11179485  .00001014  00000-0  20087-3 0  9990
2 34425  74.0162 286.3398 0027420 340.6151  19.3970 14.63452206924607
Epoch: 2026-08-24T02:40Z
TLE epoch observation values (Epoch: 2026-08-24T02:40:59.075Z)
Latitude
-0.00006°
Longitude
-86.30454°
Altitude
666.435 km
Speed
7.534 km/s
True Right ascension
19h 05m 21s
True Declination
0° 00' 00"
Sunlit
Object was in full shadow at epoch
Visualization orbit readout
Latitude
Unknown
Longitude
Unknown
Altitude
Unknown
Speed
Unknown
Apparent Right ascension
Unknown
Apparent Declination
Unknown
Sunlit
N/A
Visualization observer readout
Local Sidereal Time
08:53:22
Azimuth
Unknown
Elevation
Unknown
Doppler factor
Unknown
Orbital elements
Apogee altitude
698.997 km
Perigee altitude
660.292 km
Semi-major axis
7,057.781 km
Eccentricity
0.00274
Inclination
74.0162°
RAAN
286.3398°
Arg. of periapsis
340.6151°
True anomaly
19.50169°
Mean anomaly
19.397°
Eccentric anomaly
19.44931°
Mean motion
3.6605 °/min
Orbital period
98.35 mins
BSTAR
0.00020087

Documentation

Showing up to 5 results
|